M I D A S
Marine Information and Data Acquisition System
Tripno 2148 of the Zeeleeuw from 2011-07-19 06:41:00 to 2011-07-19 14:12:29
Back to CruiseResearch ActivitiesStationsMapUnderway DataData graphs

EquipmentUnitsComments
TimeDGPSUTC
LatitudeDGPSDM.mWGS84
LongitudeDGPSDM.mWGS84
SpeedMeteo Stationm/sRelative wind speed
DirectionMeteo StationdegRelative wind direction
TemperatureMeteo Stationdeg CelciusAir temperature
PressureMeteo StationPaAtmospheric pressure
HumidityMeteo Station%Relative humidity
Missing or incorrect values are displayed as -999
Metereological data collected by the RV Zeeleeuw from 2011-07-19 06:43:17 to 2011-07-19 14:18:08
                                                                                    Next 1000 lines
Time Latitude Longitude Speed Direction Temperature Pressure Humidity
2011-07-19 06:43:28 51°13.635 2°56.019 -999 27 13.8 100250 45
2011-07-19 06:43:33 51°13.635 2°56.019 -999 35 13.8 100250 45
2011-07-19 06:43:37 51°13.635 2°56.019 -999 32 13.8 100250 45
2011-07-19 06:43:43 51°13.635 2°56.019 -999 19 13.8 100250 45
2011-07-19 06:43:48 51°13.635 2°56.019 -999 1 13.8 100250 44
2011-07-19 06:43:53 51°13.635 2°56.018 -999 15 13.8 100250 44
2011-07-19 06:43:57 51°13.636 2°56.017 -999 35 13.8 100250 45
2011-07-19 06:44:02 51°13.636 2°56.014 -999 27 13.8 100250 45
2011-07-19 06:44:08 51°13.637 2°56.01 -999 38 13.8 100250 44
2011-07-19 06:44:13 51°13.638 2°56.006 3.4 52 13.8 100250 44
2011-07-19 06:44:18 51°13.64 2°56.001 2.9 23 13.8 100250 44
2011-07-19 06:44:24 51°13.642 2°55.994 2.4 44 13.8 100250 44
2011-07-19 06:44:30 51°13.644 2°55.987 1.7 37 13.8 100250 44
2011-07-19 06:44:35 51°13.646 2°55.98 0.7 58 13.8 100250 44
2011-07-19 06:44:41 51°13.648 2°55.971 0.1 26 13.8 100250 43
2011-07-19 06:44:46 51°13.651 2°55.964 0.1 40 13.8 100250 43
2011-07-19 06:44:51 51°13.653 2°55.956 0.1 44 13.8 100250 45
2011-07-19 06:44:56 51°13.656 2°55.947 1 59 13.8 100250 45
2011-07-19 06:45:01 51°13.658 2°55.938 1.9 20 13.8 100250 45
2011-07-19 06:45:06 51°13.661 2°55.929 3.1 51 13.8 100250 45
2011-07-19 06:45:11 51°13.664 2°55.919 3.4 26 13.8 100250 44
2011-07-19 06:45:16 51°13.666 2°55.909 2 43 13.8 100250 44
2011-07-19 06:45:21 51°13.668 2°55.899 3.3 44 13.8 100250 45
2011-07-19 06:45:26 51°13.671 2°55.889 3.6 45 13.8 100250 45
2011-07-19 06:45:32 51°13.674 2°55.877 2.8 43 13.8 100250 43
2011-07-19 06:45:37 51°13.676 2°55.866 3.7 42 13.8 100250 43
2011-07-19 06:45:42 51°13.678 2°55.856 2.6 28 13.8 100250 42
2011-07-19 06:45:46 51°13.679 2°55.848 1.7 44 13.8 100250 42
2011-07-19 06:45:51 51°13.68 2°55.838 3 27 13.8 100250 43
2011-07-19 06:45:56 51°13.682 2°55.829 2.4 52 13.8 100250 43
2011-07-19 06:46:01 51°13.683 2°55.82 1.7 23 13.8 100250 44
2011-07-19 06:46:06 51°13.684 2°55.811 2.5 56 13.8 100250 44
2011-07-19 06:46:11 51°13.685 2°55.803 3.2 25 13.8 100250 45
2011-07-19 06:46:16 51°13.686 2°55.794 3.4 58 13.8 100250 45
2011-07-19 06:46:21 51°13.687 2°55.787 3.2 22 13.8 100250 43
2011-07-19 06:46:26 51°13.689 2°55.779 2.4 45 13.8 100250 43
2011-07-19 06:46:31 51°13.69 2°55.772 2.3 43 13.8 100250 44
2011-07-19 06:46:35 51°13.69 2°55.767 2.8 55 13.8 100250 44
2011-07-19 06:46:41 51°13.691 2°55.761 2.6 21 13.8 100250 43
2011-07-19 06:46:46 51°13.692 2°55.758 0.1 39 13.8 100250 43
2011-07-19 06:46:51 51°13.692 2°55.755 0.1 32 13.8 100250 44
2011-07-19 06:46:56 51°13.692 2°55.753 -999 31 13.8 100250 44
2011-07-19 06:47:01 51°13.693 2°55.752 -999 24 13.8 100250 44
2011-07-19 06:47:07 51°13.693 2°55.75 -999 42 13.8 100250 44
2011-07-19 06:47:12 51°13.694 2°55.75 -999 44 13.8 100250 44
2011-07-19 06:47:16 51°13.695 2°55.75 -999 41 13.8 100250 44
2011-07-19 06:47:21 51°13.696 2°55.752 -999 42 13.8 100250 44
2011-07-19 06:47:27 51°13.697 2°55.753 -999 55 13.8 100250 44
2011-07-19 06:47:31 51°13.698 2°55.754 -999 44 13.8 100250 44
2011-07-19 06:47:36 51°13.699 2°55.755 -999 54 13.8 100250 44
2011-07-19 06:47:41 51°13.699 2°55.755 -999 24 13.8 100250 44
2011-07-19 06:47:46 51°13.699 2°55.755 -999 55 13.8 100250 44
2011-07-19 06:47:52 51°13.699 2°55.754 0.1 20 13.8 100260 44
2011-07-19 06:47:57 51°13.698 2°55.753 0.1 54 13.8 100260 44
2011-07-19 06:48:01 51°13.698 2°55.752 0.1 24 13.8 100250 44
2011-07-19 06:48:06 51°13.696 2°55.751 -999 54 13.8 100250 44
2011-07-19 06:48:11 51°13.695 2°55.749 -999 24 13.8 100250 44
2011-07-19 06:48:16 51°13.693 2°55.747 -999 54 13.8 100250 44
2011-07-19 06:48:21 51°13.69 2°55.745 -999 24 13.8 100250 43
2011-07-19 06:48:26 51°13.688 2°55.743 -999 54 13.8 100250 43
2011-07-19 06:48:31 51°13.686 2°55.741 -999 24 13.8 100250 44
2011-07-19 06:48:36 51°13.685 2°55.739 -999 55 13.8 100250 44
2011-07-19 06:48:41 51°13.684 2°55.739 0.6 24 13.8 100260 44
2011-07-19 06:48:46 51°13.683 2°55.738 0.2 52 13.8 100260 44
2011-07-19 06:48:51 51°13.684 2°55.738 0.1 22 13.8 100260 44
2011-07-19 06:48:56 51°13.685 2°55.738 0.5 51 13.8 100260 44
2011-07-19 06:49:01 51°13.686 2°55.738 0.3 22 13.9 100260 45
2011-07-19 06:49:06 51°13.689 2°55.737 0.1 312 13.9 100260 45
2011-07-19 06:49:11 51°13.692 2°55.736 0.1 261 13.9 100260 44
2011-07-19 06:49:16 51°13.695 2°55.734 0.1 306 13.9 100260 44
2011-07-19 06:49:21 51°13.698 2°55.732 -999 258 13.9 100260 44
2011-07-19 06:49:26 51°13.703 2°55.729 -999 306 13.9 100260 44
2011-07-19 06:49:31 51°13.707 2°55.726 -999 251 14 100260 44
2011-07-19 06:49:36 51°13.712 2°55.722 -999 306 14 100260 44
2011-07-19 06:49:41 51°13.718 2°55.718 -999 24 14 100260 44
2011-07-19 06:49:46 51°13.724 2°55.713 -999 306 14 100260 44
2011-07-19 06:49:51 51°13.73 2°55.708 1.2 26 14 100260 44
2011-07-19 06:49:56 51°13.737 2°55.703 1.2 303 14 100260 44
2011-07-19 06:50:01 51°13.744 2°55.697 0.2 22 14 100260 44
2011-07-19 06:50:05 51°13.75 2°55.693 0.7 308 14 100260 44
2011-07-19 06:50:11 51°13.759 2°55.685 0.4 27 14 100260 45
2011-07-19 06:50:16 51°13.767 2°55.679 0.1 305 14 100260 45
2011-07-19 06:50:21 51°13.776 2°55.673 1.8 317 14 100260 44
2011-07-19 06:50:26 51°13.785 2°55.666 2.6 303 14 100260 44
2011-07-19 06:50:31 51°13.794 2°55.66 2 21 14 100250 44
2011-07-19 06:50:36 51°13.803 2°55.653 3.8 304 14 100250 44
2011-07-19 06:50:41 51°13.813 2°55.647 1.9 318 14 100260 43
2011-07-19 06:50:46 51°13.823 2°55.64 1.4 303 14 100260 43
2011-07-19 06:50:51 51°13.833 2°55.633 2.1 21 14 100260 45
2011-07-19 06:50:56 51°13.843 2°55.627 0.9 310 14 100260 45
2011-07-19 06:51:01 51°13.853 2°55.62 1.5 319 14 100250 44
2011-07-19 06:51:06 51°13.863 2°55.613 1.6 307 14 100250 44
2011-07-19 06:51:11 51°13.874 2°55.607 0.8 316 14 100250 43
2011-07-19 06:51:16 51°13.885 2°55.6 2.3 307 14 100250 43
2011-07-19 06:51:21 51°13.897 2°55.593 1 28 14 100260 43
2011-07-19 06:51:26 51°13.908 2°55.586 1.4 323 14 100260 43
2011-07-19 06:51:31 51°13.919 2°55.578 2.4 317 14.1 100250 43
2011-07-19 06:51:36 51°13.93 2°55.569 3.6 301 14.1 100250 43
2011-07-19 06:51:41 51°13.941 2°55.561 2.1 324 14 100260 44
2011-07-19 06:51:46 51°13.953 2°55.553 3.9 303 14 100260 44
2011-07-19 06:51:51 51°13.963 2°55.544 3.6 322 14.1 100260 45
2011-07-19 06:51:56 51°13.974 2°55.535 4.2 302 14.1 100260 45
2011-07-19 06:52:01 51°13.985 2°55.526 3.9 322 14.1 100260 43
2011-07-19 06:52:06 51°13.996 2°55.518 2.7 308 14.1 100260 43
2011-07-19 06:52:11 51°14.007 2°55.509 2.4 24 14.1 100260 45
2011-07-19 06:52:16 51°14.019 2°55.5 0.1 305 14.1 100260 45
2011-07-19 06:52:21 51°14.031 2°55.491 0.1 320 14.1 100250 43
2011-07-19 06:52:25 51°14.04 2°55.484 1 332 14.1 100250 43
2011-07-19 06:52:31 51°14.054 2°55.473 3.4 327 14.1 100260 44
2011-07-19 06:52:36 51°14.066 2°55.464 4 302 14.1 100260 44
2011-07-19 06:52:40 51°14.076 2°55.457 3.9 319 14.1 100260 44
2011-07-19 06:52:45 51°14.088 2°55.448 4.4 306 14.1 100260 44
2011-07-19 06:52:50 51°14.099 2°55.438 4.1 26 14.1 100260 45
2011-07-19 06:52:55 51°14.111 2°55.429 3.4 307 14.1 100260 45
2011-07-19 06:53:00 51°14.123 2°55.419 4.5 326 14.1 100260 43
2011-07-19 06:53:05 51°14.135 2°55.409 3.9 304 14.1 100260 43
2011-07-19 06:53:09 51°14.145 2°55.402 4 327 14.2 100250 45
2011-07-19 06:53:14 51°14.157 2°55.392 4.1 303 14.2 100250 45
2011-07-19 06:53:20 51°14.171 2°55.379 4.6 327 14.1 100260 44
2011-07-19 06:53:25 51°14.184 2°55.369 4.9 327 14.1 100260 44
2011-07-19 06:53:29 51°14.193 2°55.361 4.8 323 14.1 100250 45
2011-07-19 06:53:35 51°14.208 2°55.348 4.7 302 14.1 100250 45
2011-07-19 06:53:40 51°14.22 2°55.338 5.1 316 14.1 100250 41
2011-07-19 06:53:45 51°14.232 2°55.327 5.3 308 14.1 100250 41
2011-07-19 06:53:50 51°14.245 2°55.317 3.9 316 14.2 100250 45
2011-07-19 06:53:56 51°14.259 2°55.304 6.5 304 14.2 100250 45
2011-07-19 06:54:01 51°14.272 2°55.293 5.7 322 14.2 100250 43
2011-07-19 06:54:06 51°14.284 2°55.282 5.8 302 14.2 100250 43
2011-07-19 06:54:10 51°14.294 2°55.273 5.6 23 14.2 100260 44
2011-07-19 06:54:16 51°14.309 2°55.259 5.2 303 14.2 100260 44
2011-07-19 06:54:21 51°14.322 2°55.247 5.2 25 14.2 100250 42
2011-07-19 06:54:26 51°14.334 2°55.235 5.4 303 14.2 100250 42
2011-07-19 06:54:31 51°14.346 2°55.223 4.7 19 14.2 100250 43
2011-07-19 06:54:36 51°14.359 2°55.211 5.4 303 14.2 100250 43
2011-07-19 06:54:41 51°14.372 2°55.199 5.5 27 14.2 100250 44
2011-07-19 06:54:46 51°14.385 2°55.187 5.4 304 14.2 100250 44
2011-07-19 06:54:51 51°14.397 2°55.175 5.9 26 14.2 100250 44
2011-07-19 06:54:56 51°14.41 2°55.163 6.1 304 14.2 100250 44
2011-07-19 06:55:01 51°14.423 2°55.15 4.6 26 14.2 100250 43
2011-07-19 06:55:06 51°14.435 2°55.138 5 306 14.2 100250 43
2011-07-19 06:55:11 51°14.448 2°55.126 6.7 26 14.2 100250 42
2011-07-19 06:55:16 51°14.461 2°55.113 5.2 302 14.2 100250 42
2011-07-19 06:55:21 51°14.474 2°55.1 5.3 23 14.2 100250 42
2011-07-19 06:55:25 51°14.484 2°55.089 5.5 308 14.2 100250 42
2011-07-19 06:55:30 51°14.498 2°55.076 6.2 20 14.2 100250 43
2011-07-19 06:55:35 51°14.511 2°55.062 6.2 310 14.2 100250 43
2011-07-19 06:55:40 51°14.525 2°55.049 5.6 20 14.2 100250 44
2011-07-19 06:55:45 51°14.538 2°55.034 5.7 304 14.2 100250 44
2011-07-19 06:55:49 51°14.549 2°55.021 6.5 28 14.2 100250 44
2011-07-19 06:55:54 51°14.562 2°55.003 7.2 308 14.2 100250 44
2011-07-19 06:55:59 51°14.575 2°54.985 6.8 21 14.2 100250 42
2011-07-19 06:56:04 51°14.589 2°54.967 7.9 309 14.2 100250 42
2011-07-19 06:56:09 51°14.602 2°54.949 7.4 26 14.2 100250 43
2011-07-19 06:56:14 51°14.616 2°54.931 7.2 309 14.2 100250 43
2011-07-19 06:56:18 51°14.627 2°54.917 6.4 28 14.2 100240 42
2011-07-19 06:56:23 51°14.642 2°54.9 6.7 302 14.2 100240 42
2011-07-19 06:56:29 51°14.659 2°54.879 6.7 22 14.2 100250 44
2011-07-19 06:56:33 51°14.67 2°54.865 6.5 310 14.2 100250 44
2011-07-19 06:56:38 51°14.685 2°54.848 6.3 20 14.3 100250 42
2011-07-19 06:56:43 51°14.699 2°54.832 6.8 308 14.3 100250 42
2011-07-19 06:56:48 51°14.714 2°54.815 7.2 23 14.3 100250 44
2011-07-19 06:56:53 51°14.728 2°54.799 6.3 309 14.3 100250 44
2011-07-19 06:56:57 51°14.74 2°54.786 5.4 25 14.3 100240 44
2011-07-19 06:57:02 51°14.755 2°54.77 6.4 309 14.3 100240 44
2011-07-19 06:57:07 51°14.77 2°54.756 6.6 19 14.3 100250 44
2011-07-19 06:57:13 51°14.788 2°54.738 7 307 14.3 100250 44
2011-07-19 06:57:17 51°14.8 2°54.726 6.2 19 14.3 100250 44
2011-07-19 06:57:21 51°14.812 2°54.715 6 304 14.3 100250 44
2011-07-19 06:57:27 51°14.83 2°54.698 5.5 21 14.3 100250 44
2011-07-19 06:57:33 51°14.849 2°54.681 6.2 307 14.3 100250 44
2011-07-19 06:57:37 51°14.861 2°54.67 6.9 29 14.3 100250 44
2011-07-19 06:57:42 51°14.877 2°54.656 5.4 303 14.3 100250 44
2011-07-19 06:57:48 51°14.895 2°54.639 7 28 14.2 100250 43
2011-07-19 06:57:52 51°14.907 2°54.628 7.1 303 14.2 100250 43
2011-07-19 06:57:57 51°14.923 2°54.615 6.1 26 14.3 100250 44
2011-07-19 06:58:02 51°14.938 2°54.601 6.7 310 14.3 100250 44
2011-07-19 06:58:08 51°14.957 2°54.585 6.8 27 14.3 100260 44
2011-07-19 06:58:12 51°14.969 2°54.573 5.7 304 14.3 100260 44
2011-07-19 06:58:17 51°14.984 2°54.559 6.2 25 14.3 100260 44
2011-07-19 06:58:22 51°14.999 2°54.543 6.8 309 14.3 100260 44
2011-07-19 06:58:28 51°15.016 2°54.524 5.8 26 14.2 100250 44
2011-07-19 06:58:33 51°15.03 2°54.507 6.3 302 14.2 100250 44
2011-07-19 06:58:37 51°15.041 2°54.493 6.6 29 14.2 100260 44
2011-07-19 06:58:42 51°15.055 2°54.475 5.8 304 14.2 100260 44
2011-07-19 06:58:48 51°15.071 2°54.454 7.4 26 14.2 100250 42
2011-07-19 06:58:53 51°15.084 2°54.435 6.7 307 14.2 100250 42
2011-07-19 06:58:57 51°15.095 2°54.42 7.7 27 14.2 100250 42
2011-07-19 06:59:02 51°15.108 2°54.401 7.4 303 14.2 100250 42
2011-07-19 06:59:08 51°15.124 2°54.378 6.7 26 14.3 100260 44
2011-07-19 06:59:13 51°15.137 2°54.359 6.7 309 14.3 100260 44
2011-07-19 06:59:17 51°15.148 2°54.345 7 23 14.3 100250 43
2011-07-19 06:59:22 51°15.162 2°54.326 5.8 304 14.3 100250 43
2011-07-19 06:59:27 51°15.176 2°54.308 5.7 23 14.3 100250 43
2011-07-19 06:59:33 51°15.193 2°54.287 6.3 308 14.3 100250 43
2011-07-19 06:59:37 51°15.204 2°54.273 6.9 28 14.3 100250 43
2011-07-19 06:59:42 51°15.219 2°54.255 6.2 307 14.3 100250 43
2011-07-19 06:59:47 51°15.233 2°54.238 5.9 26 14.2 100260 43
2011-07-19 06:59:52 51°15.248 2°54.222 6.1 302 14.2 100260 43
2011-07-19 06:59:57 51°15.263 2°54.206 6 28 14.2 100260 43
2011-07-19 07:00:02 51°15.278 2°54.19 7.5 307 14.2 100260 43
2011-07-19 07:00:08 51°15.296 2°54.171 6.6 28 14.3 100250 43
2011-07-19 07:00:12 51°15.308 2°54.159 6.9 304 14.3 100250 43
2011-07-19 07:00:17 51°15.323 2°54.142 5.7 26 14.3 100260 43
2011-07-19 07:00:22 51°15.337 2°54.126 6.8 308 14.3 100260 43
2011-07-19 07:00:28 51°15.354 2°54.105 6.3 27 14.3 100260 44
2011-07-19 07:00:32 51°15.366 2°54.092 6.5 303 14.3 100260 44
2011-07-19 07:00:37 51°15.38 2°54.074 6.9 20 14.3 100250 44
2011-07-19 07:00:42 51°15.394 2°54.055 7.3 306 14.3 100250 44
2011-07-19 07:00:48 51°15.41 2°54.033 7.5 27 14.3 100260 44
2011-07-19 07:00:53 51°15.423 2°54.013 6.6 306 14.3 100260 44
2011-07-19 07:00:57 51°15.434 2°53.998 8 20 14.3 100260 42
2011-07-19 07:01:02 51°15.448 2°53.979 8.2 304 14.3 100260 42
2011-07-19 07:01:08 51°15.464 2°53.957 6.5 22 14.3 100250 42
2011-07-19 07:01:13 51°15.478 2°53.939 6.3 303 14.3 100250 42
2011-07-19 07:01:17 51°15.49 2°53.925 6.4 26 14.2 100250 44
2011-07-19 07:01:22 51°15.504 2°53.908 6.3 302 14.2 100250 44
2011-07-19 07:01:28 51°15.521 2°53.889 6.2 20 14.2 100260 44
2011-07-19 07:01:33 51°15.536 2°53.873 6.2 306 14.2 100260 44
2011-07-19 07:01:37 51°15.547 2°53.861 6.3 25 14.2 100250 42
2011-07-19 07:01:42 51°15.562 2°53.845 6.1 303 14.2 100250 42
2011-07-19 07:01:47 51°15.577 2°53.829 6.3 26 14.2 100260 42
2011-07-19 07:01:53 51°15.594 2°53.81 5.5 303 14.2 100260 42
2011-07-19 07:01:57 51°15.606 2°53.797 5.3 27 14.2 100250 42
2011-07-19 07:02:02 51°15.62 2°53.78 5.3 303 14.2 100250 42
2011-07-19 07:02:07 51°15.634 2°53.763 6.4 27 14.2 100260 44
2011-07-19 07:02:12 51°15.648 2°53.746 7 309 14.2 100260 44
2011-07-19 07:02:17 51°15.662 2°53.728 7.1 20 14.3 100260 42
2011-07-19 07:02:22 51°15.676 2°53.711 6.6 305 14.3 100260 42
2011-07-19 07:02:28 51°15.692 2°53.69 6 27 14.3 100260 44
2011-07-19 07:02:32 51°15.703 2°53.676 6.7 302 14.3 100260 44
2011-07-19 07:02:37 51°15.717 2°53.658 6.4 22 14.3 100260 42
2011-07-19 07:02:42 51°15.731 2°53.641 6.4 311 14.3 100260 42
2011-07-19 07:02:48 51°15.748 2°53.62 7.5 20 14.3 100250 44
2011-07-19 07:02:53 51°15.762 2°53.602 6.7 307 14.3 100250 44
2011-07-19 07:02:57 51°15.774 2°53.588 7.7 21 14.3 100250 43
2011-07-19 07:03:02 51°15.788 2°53.571 8.5 307 14.3 100250 43
2011-07-19 07:03:08 51°15.804 2°53.549 6.5 25 14.3 100250 44
2011-07-19 07:03:13 51°15.818 2°53.531 6.8 306 14.3 100250 44
2011-07-19 07:03:17 51°15.829 2°53.517 6.9 28 14.2 100250 44
2011-07-19 07:03:22 51°15.843 2°53.499 6.5 306 14.2 100250 44
2011-07-19 07:03:28 51°15.861 2°53.48 6.2 25 14.2 100250 44
2011-07-19 07:03:33 51°15.876 2°53.465 7.3 303 14.2 100250 44
2011-07-19 07:03:37 51°15.888 2°53.454 7.7 26 14.2 100260 44
2011-07-19 07:03:42 51°15.904 2°53.44 7.7 303 14.2 100260 44
2011-07-19 07:03:48 51°15.923 2°53.425 5.9 23 14.2 100260 44
2011-07-19 07:03:53 51°15.939 2°53.412 6 302 14.2 100260 44
2011-07-19 07:03:57 51°15.952 2°53.403 6 20 14.2 100260 44
2011-07-19 07:04:02 51°15.968 2°53.391 6.2 304 14.2 100260 44
2011-07-19 07:04:07 51°15.984 2°53.379 6.3 21 14.2 100260 43
2011-07-19 07:04:13 51°16.003 2°53.366 6.2 303 14.2 100260 43
2011-07-19 07:04:17 51°16.016 2°53.356 5.8 22 14.3 100260 41
2011-07-19 07:04:22 51°16.032 2°53.345 5.8 309 14.3 100260 41
2011-07-19 07:04:28 51°16.051 2°53.33 5.8 25 14.2 100260 43
2011-07-19 07:04:33 51°16.067 2°53.317 5.5 306 14.2 100260 43
2011-07-19 07:04:37 51°16.08 2°53.307 6 28 14.2 100260 42
2011-07-19 07:04:42 51°16.095 2°53.294 6.6 305 14.2 100260 42
2011-07-19 07:04:48 51°16.114 2°53.278 7.6 21 14.2 100260 44
2011-07-19 07:04:52 51°16.126 2°53.268 6.5 303 14.2 100260 44
2011-07-19 07:04:57 51°16.142 2°53.254 6.5 20 14.2 100260 43
2011-07-19 07:05:02 51°16.157 2°53.24 5.5 301 14.2 100260 43
2011-07-19 07:05:08 51°16.175 2°53.223 5.5 28 14.2 100260 42
2011-07-19 07:05:13 51°16.191 2°53.21 6.5 305 14.2 100260 42
2011-07-19 07:05:17 51°16.203 2°53.2 5.9 19 14.2 100260 43
2011-07-19 07:05:22 51°16.219 2°53.187 5.9 303 14.2 100260 43
2011-07-19 07:05:28 51°16.238 2°53.172 6.6 23 14.2 100260 43
2011-07-19 07:05:33 51°16.254 2°53.16 5.1 302 14.2 100260 43
2011-07-19 07:05:37 51°16.267 2°53.15 7.4 23 14.2 100260 44
2011-07-19 07:05:42 51°16.283 2°53.138 6.7 307 14.2 100260 44
2011-07-19 07:05:48 51°16.302 2°53.123 7.1 21 14.2 100260 42
2011-07-19 07:05:53 51°16.317 2°53.11 6 305 14.2 100260 42
2011-07-19 07:05:57 51°16.33 2°53.099 7.1 26 14.3 100260 44
2011-07-19 07:06:02 51°16.345 2°53.085 5.8 303 14.3 100260 44
2011-07-19 07:06:08 51°16.363 2°53.067 7.3 28 14.3 100260 44
2011-07-19 07:06:13 51°16.378 2°53.053 6.3 306 14.3 100260 44
2011-07-19 07:06:17 51°16.39 2°53.041 7 21 14.3 100260 44
2011-07-19 07:06:22 51°16.405 2°53.026 6.8 306 14.3 100260 44
2011-07-19 07:06:27 51°16.421 2°53.012 6.6 27 14.3 100260 44
2011-07-19 07:06:33 51°16.439 2°52.994 6.7 307 14.3 100260 44
2011-07-19 07:06:37 51°16.451 2°52.983 6.7 26 14.3 100260 42
2011-07-19 07:06:42 51°16.466 2°52.969 6 306 14.3 100260 42
2011-07-19 07:06:48 51°16.485 2°52.953 6 24 14.3 100260 42
2011-07-19 07:06:52 51°16.497 2°52.943 6.1 302 14.3 100260 42
2011-07-19 07:06:57 51°16.513 2°52.931 5.6 27 14.3 100260 41
2011-07-19 07:07:02 51°16.529 2°52.919 5.2 307 14.3 100260 41
2011-07-19 07:07:08 51°16.549 2°52.905 5 22 14.3 100260 42
2011-07-19 07:07:12 51°16.562 2°52.897 6.1 304 14.3 100260 42
2011-07-19 07:07:17 51°16.578 2°52.887 6.1 22 14.3 100260 43
2011-07-19 07:07:22 51°16.595 2°52.877 5.9 306 14.3 100260 43
2011-07-19 07:07:28 51°16.614 2°52.865 4.8 21 14.3 100260 43
2011-07-19 07:07:33 51°16.63 2°52.855 6.3 302 14.3 100260 43
2011-07-19 07:07:37 51°16.643 2°52.847 6.3 20 14.3 100260 43
2011-07-19 07:07:42 51°16.66 2°52.836 7.8 306 14.3 100260 43
2011-07-19 07:07:48 51°16.679 2°52.823 6.9 23 14.3 100260 44
2011-07-19 07:07:53 51°16.695 2°52.812 6.2 306 14.3 100260 44
2011-07-19 07:07:57 51°16.708 2°52.803 6.5 26 14.3 100260 42
2011-07-19 07:08:02 51°16.724 2°52.791 7.1 309 14.3 100260 42
2011-07-19 07:08:08 51°16.743 2°52.777 5.8 26 14.3 100260 44
2011-07-19 07:08:13 51°16.758 2°52.764 6.2 303 14.3 100260 44
2011-07-19 07:08:17 51°16.771 2°52.754 7.3 20 14.3 100260 43
2011-07-19 07:08:22 51°16.787 2°52.742 7.1 309 14.3 100260 43
2011-07-19 07:08:27 51°16.802 2°52.729 7.2 21 14.3 100260 43
2011-07-19 07:08:33 51°16.821 2°52.714 6.2 302 14.3 100260 43
2011-07-19 07:08:37 51°16.833 2°52.704 6.4 22 14.3 100250 43
2011-07-19 07:08:42 51°16.849 2°52.691 6 303 14.3 100250 43
2011-07-19 07:08:47 51°16.865 2°52.679 5.7 28 14.3 100260 43
2011-07-19 07:08:53 51°16.883 2°52.664 6.6 301 14.3 100260 43
2011-07-19 07:08:57 51°16.896 2°52.654 6.9 20 14.3 100270 44
2011-07-19 07:09:02 51°16.911 2°52.641 6.3 301 14.3 100270 44
2011-07-19 07:09:08 51°16.93 2°52.626 6.2 25 14.3 100260 44
2011-07-19 07:09:12 51°16.942 2°52.616 6 304 14.3 100260 44
2011-07-19 07:09:17 51°16.958 2°52.604 7 27 14.3 100260 42
2011-07-19 07:09:22 51°16.974 2°52.591 5.6 303 14.3 100260 42
2011-07-19 07:09:28 51°16.993 2°52.576 5.2 24 14.3 100260 42
2011-07-19 07:09:33 51°17.009 2°52.564 6.2 308 14.3 100260 42
2011-07-19 07:09:37 51°17.021 2°52.555 6.8 20 14.3 100270 43
2011-07-19 07:09:42 51°17.037 2°52.544 6.9 304 14.3 100270 43
2011-07-19 07:09:48 51°17.057 2°52.532 5.8 26 14.3 100260 44
2011-07-19 07:09:53 51°17.073 2°52.521 5.3 308 14.3 100260 44
2011-07-19 07:09:57 51°17.087 2°52.514 5 27 14.3 100270 43
2011-07-19 07:10:02 51°17.103 2°52.505 5.6 304 14.3 100270 43
2011-07-19 07:10:08 51°17.123 2°52.493 5.3 22 14.3 100260 44
2011-07-19 07:10:13 51°17.139 2°52.483 6.2 302 14.3 100260 44
2011-07-19 07:10:17 51°17.152 2°52.475 5.3 21 14.3 100270 44
2011-07-19 07:10:22 51°17.169 2°52.466 6.3 307 14.3 100270 44
2011-07-19 07:10:28 51°17.189 2°52.454 6.3 21 14.3 100270 44
2011-07-19 07:10:33 51°17.205 2°52.444 7.2 303 14.3 100270 44
2011-07-19 07:10:37 51°17.218 2°52.436 6.6 20 14.3 100270 42
2011-07-19 07:10:42 51°17.235 2°52.426 7.2 304 14.3 100270 42
2011-07-19 07:10:47 51°17.252 2°52.416 7.6 19 14.3 100270 43
2011-07-19 07:10:53 51°17.271 2°52.404 6.5 304 14.3 100270 43
2011-07-19 07:10:57 51°17.284 2°52.395 6.5 20 14.3 100270 44
2011-07-19 07:11:02 51°17.3 2°52.383 5.9 303 14.3 100270 44
2011-07-19 07:11:08 51°17.319 2°52.369 7.2 25 14.3 100270 42
2011-07-19 07:11:13 51°17.335 2°52.356 6.4 308 14.3 100270 42
2011-07-19 07:11:17 51°17.347 2°52.346 6.6 21 14.3 100260 44
2011-07-19 07:11:22 51°17.363 2°52.333 6 306 14.3 100260 44
2011-07-19 07:11:28 51°17.382 2°52.317 6.5 25 14.3 100260 43
2011-07-19 07:11:32 51°17.394 2°52.307 5.8 306 14.3 100260 43
2011-07-19 07:11:37 51°17.409 2°52.294 6 21 14.3 100260 42
2011-07-19 07:11:42 51°17.425 2°52.281 6.5 285 14.3 100260 42
2011-07-19 07:11:48 51°17.444 2°52.266 6.2 22 14.2 100260 44
2011-07-19 07:11:53 51°17.459 2°52.253 5.5 307 14.2 100260 44
2011-07-19 07:11:57 51°17.472 2°52.244 6.6 27 14.2 100270 43
2011-07-19 07:12:02 51°17.488 2°52.231 6.2 306 14.2 100270 43
2011-07-19 07:12:08 51°17.508 2°52.218 5.4 29 14.2 100260 44
2011-07-19 07:12:13 51°17.524 2°52.206 6.7 307 14.2 100260 44
2011-07-19 07:12:17 51°17.538 2°52.198 6.2 26 14.2 100260 43
2011-07-19 07:12:22 51°17.554 2°52.188 5.7 304 14.2 100260 43
2011-07-19 07:12:28 51°17.574 2°52.176 5.9 20 14.2 100260 42
2011-07-19 07:12:33 51°17.59 2°52.166 6 303 14.2 100260 42
2011-07-19 07:12:37 51°17.604 2°52.158 5.3 25 14.2 100260 43
2011-07-19 07:12:42 51°17.62 2°52.147 6.1 303 14.2 100260 43
2011-07-19 07:12:48 51°17.64 2°52.135 6.5 28 14.2 100270 42
2011-07-19 07:12:53 51°17.656 2°52.124 5.4 307 14.2 100270 42
2011-07-19 07:12:57 51°17.669 2°52.115 5.8 24 14.2 100270 43
2011-07-19 07:13:02 51°17.685 2°52.104 5.1 307 14.2 100270 43
2011-07-19 07:13:07 51°17.701 2°52.092 5.4 23 14.2 100270 42
2011-07-19 07:13:13 51°17.72 2°52.077 5.8 303 14.2 100270 42
2011-07-19 07:13:17 51°17.732 2°52.066 6.3 21 14.2 100270 43
2011-07-19 07:13:22 51°17.748 2°52.053 5.1 302 14.2 100270 43
2011-07-19 07:13:28 51°17.767 2°52.038 6.5 25 14.2 100260 44
2011-07-19 07:13:32 51°17.779 2°52.027 5.6 303 14.2 100260 44
2011-07-19 07:13:37 51°17.795 2°52.014 6.5 26 14.2 100270 44
2011-07-19 07:13:42 51°17.811 2°52.001 6 305 14.2 100270 44
2011-07-19 07:13:48 51°17.83 2°51.987 5.3 23 14.3 100270 42
2011-07-19 07:13:52 51°17.842 2°51.977 6.5 306 14.3 100270 42
2011-07-19 07:13:57 51°17.859 2°51.966 5.2 22 14.3 100260 43
2011-07-19 07:14:02 51°17.875 2°51.956 7.3 301 14.3 100260 43
2011-07-19 07:14:08 51°17.894 2°51.943 6.3 26 14.3 100260 44
2011-07-19 07:14:13 51°17.911 2°51.932 5.6 303 14.3 100260 44
2011-07-19 07:14:17 51°17.924 2°51.924 6.2 22 14.3 100270 43
2011-07-19 07:14:22 51°17.94 2°51.914 6.3 307 14.3 100270 43
2011-07-19 07:14:28 51°17.96 2°51.901 6.1 25 14.3 100260 43
2011-07-19 07:14:33 51°17.976 2°51.89 5.9 306 14.3 100260 43
2011-07-19 07:14:37 51°17.988 2°51.88 7.3 22 14.3 100260 42
2011-07-19 07:14:42 51°18.004 2°51.868 6.2 303 14.3 100260 42
2011-07-19 07:14:48 51°18.023 2°51.853 6.5 27 14.3 100270 42
2011-07-19 07:14:53 51°18.039 2°51.84 7 306 14.3 100270 42
2011-07-19 07:14:57 51°18.052 2°51.829 6.7 23 14.3 100260 42
2011-07-19 07:15:02 51°18.067 2°51.817 5.9 304 14.3 100260 42
2011-07-19 07:15:08 51°18.086 2°51.801 7.2 26 14.3 100260 42
2011-07-19 07:15:13 51°18.102 2°51.788 6.2 304 14.3 100260 42
2011-07-19 07:15:17 51°18.115 2°51.777 7.7 25 14.3 100270 44
2011-07-19 07:15:22 51°18.13 2°51.764 6.1 307 14.3 100270 44
2011-07-19 07:15:27 51°18.146 2°51.751 6.5 21 14.3 100260 43
2011-07-19 07:15:33 51°18.165 2°51.735 6.7 304 14.3 100260 43
2011-07-19 07:15:37 51°18.178 2°51.726 6.2 28 14.3 100260 42
2011-07-19 07:15:42 51°18.194 2°51.713 6 281 14.3 100260 42
2011-07-19 07:15:48 51°18.213 2°51.699 6.4 26 14.3 100270 43
2011-07-19 07:15:52 51°18.226 2°51.69 6 302 14.3 100270 43
2011-07-19 07:15:57 51°18.243 2°51.679 5.9 22 14.3 100260 42
2011-07-19 07:16:02 51°18.259 2°51.669 5.9 304 14.3 100260 42
2011-07-19 07:16:08 51°18.279 2°51.656 5.8 23 14.3 100260 42
2011-07-19 07:16:13 51°18.296 2°51.646 5.9 307 14.3 100260 42
2011-07-19 07:16:17 51°18.309 2°51.637 5.2 26 14.3 100270 44
2011-07-19 07:16:21 51°18.322 2°51.629 5.3 309 14.3 100270 44
2011-07-19 07:16:27 51°18.342 2°51.616 4.7 28 14.3 100270 44
2011-07-19 07:16:33 51°18.361 2°51.603 5.4 303 14.3 100270 44
2011-07-19 07:16:37 51°18.375 2°51.594 5.5 29 14.3 100270 44
2011-07-19 07:16:43 51°18.394 2°51.58 5.6 309 14.3 100270 44
2011-07-19 07:16:47 51°18.407 2°51.571 5 25 14.3 100270 44
2011-07-19 07:16:53 51°18.427 2°51.557 5.6 301 14.3 100270 44
2011-07-19 07:16:57 51°18.439 2°51.547 5.4 26 14.3 100270 44
2011-07-19 07:17:01 51°18.452 2°51.536 5 308 14.3 100270 44
2011-07-19 07:17:07 51°18.471 2°51.52 5.4 27 14.3 100270 44
2011-07-19 07:17:13 51°18.49 2°51.505 5 301 14.3 100270 44
2011-07-19 07:17:17 51°18.503 2°51.494 6.4 20 14.3 100270 44
2011-07-19 07:17:21 51°18.515 2°51.483 4.4 302 14.3 100270 44
2011-07-19 07:17:27 51°18.534 2°51.467 5.1 28 14.3 100270 44
2011-07-19 07:17:33 51°18.554 2°51.452 4.9 308 14.3 100270 44
2011-07-19 07:17:37 51°18.566 2°51.442 6.6 24 14.3 100270 41
2011-07-19 07:17:41 51°18.579 2°51.432 5.6 279 14.3 100270 41
2011-07-19 07:17:47 51°18.598 2°51.417 5.7 27 14.3 100270 43
2011-07-19 07:17:52 51°18.615 2°51.405 5.6 302 14.3 100270 43
2011-07-19 07:17:57 51°18.631 2°51.392 5.1 26 14.3 100270 43
2011-07-19 07:18:01 51°18.643 2°51.382 5.7 304 14.3 100270 43
2011-07-19 07:18:07 51°18.662 2°51.366 5.4 19 14.3 100270 44
2011-07-19 07:18:12 51°18.678 2°51.353 5.2 304 14.3 100270 44
2011-07-19 07:18:17 51°18.694 2°51.341 5.5 26 14.3 100270 43
2011-07-19 07:18:22 51°18.71 2°51.328 5.6 308 14.3 100270 43
2011-07-19 07:18:28 51°18.729 2°51.313 6.5 23 14.3 100270 42
2011-07-19 07:18:33 51°18.745 2°51.301 6 307 14.3 100270 42
2011-07-19 07:18:37 51°18.759 2°51.292 5.5 21 14.3 100270 42
2011-07-19 07:18:42 51°18.775 2°51.282 5.8 308 14.3 100270 42
2011-07-19 07:18:48 51°18.795 2°51.269 5.6 26 14.3 100270 43
2011-07-19 07:18:53 51°18.812 2°51.258 5.2 308 14.3 100270 43
2011-07-19 07:18:57 51°18.825 2°51.25 6.4 26 14.3 100260 43
2011-07-19 07:19:02 51°18.841 2°51.239 5.4 303 14.3 100260 43
2011-07-19 07:19:08 51°18.861 2°51.226 6.6 20 14.3 100270 42
2011-07-19 07:19:13 51°18.877 2°51.215 6.4 308 14.3 100270 42
2011-07-19 07:19:17 51°18.89 2°51.205 5.8 27 14.3 100270 43
2011-07-19 07:19:22 51°18.907 2°51.194 5.9 305 14.3 100270 43
2011-07-19 07:19:28 51°18.926 2°51.18 5.7 24 14.3 100270 44
2011-07-19 07:19:33 51°18.942 2°51.168 6.4 309 14.3 100270 44
2011-07-19 07:19:37 51°18.955 2°51.158 6.1 26 14.4 100270 44
2011-07-19 07:19:42 51°18.972 2°51.146 6 282 14.4 100270 44
2011-07-19 07:19:47 51°18.988 2°51.134 6.5 23 14.4 100270 44
2011-07-19 07:19:53 51°19.007 2°51.12 5.5 303 14.4 100270 44
2011-07-19 07:19:57 51°19.02 2°51.111 5.3 19 14.4 100270 43
2011-07-19 07:20:02 51°19.036 2°51.099 6.5 309 14.4 100270 43
2011-07-19 07:20:08 51°19.056 2°51.085 5.7 19 14.4 100260 44
2011-07-19 07:20:12 51°19.069 2°51.075 5.8 302 14.4 100260 44
2011-07-19 07:20:17 51°19.085 2°51.063 5.6 26 14.4 100270 41
2011-07-19 07:20:21 51°19.098 2°51.054 5.1 304 14.4 100270 41
2011-07-19 07:20:27 51°19.117 2°51.04 3.3 20 14.3 100270 43
2011-07-19 07:20:32 51°19.134 2°51.029 6.2 304 14.3 100270 43
2011-07-19 07:20:37 51°19.15 2°51.017 5.8 23 14.3 100270 43
2011-07-19 07:20:41 51°19.164 2°51.009 6.6 304 14.3 100270 43
2011-07-19 07:20:47 51°19.183 2°50.995 5.6 21 14.4 100270 44
2011-07-19 07:20:53 51°19.203 2°50.982 6.4 302 14.4 100270 44
2011-07-19 07:20:57 51°19.216 2°50.973 6.1 22 14.4 100270 44
2011-07-19 07:21:03 51°19.235 2°50.959 5.2 302 14.4 100270 44
2011-07-19 07:21:07 51°19.248 2°50.949 6.7 22 14.4 100270 43
2011-07-19 07:21:13 51°19.268 2°50.934 6.6 304 14.4 100270 43
2011-07-19 07:21:17 51°19.28 2°50.924 5.5 25 14.4 100270 43
2011-07-19 07:21:23 51°19.3 2°50.909 6.3 302 14.4 100270 43
2011-07-19 07:21:27 51°19.312 2°50.898 6.5 21 14.4 100270 44
2011-07-19 07:21:33 51°19.331 2°50.882 6.2 309 14.4 100270 44
2011-07-19 07:21:37 51°19.344 2°50.872 6.1 19 14.4 100270 43
2011-07-19 07:21:41 51°19.357 2°50.861 5.8 279 14.4 100270 43
2011-07-19 07:21:47 51°19.376 2°50.846 5.7 20 14.4 100270 43
2011-07-19 07:21:53 51°19.395 2°50.83 5.5 307 14.4 100270 43
2011-07-19 07:21:57 51°19.408 2°50.82 5.4 25 14.4 100270 42
2011-07-19 07:22:01 51°19.421 2°50.811 5.5 303 14.4 100270 42
2011-07-19 07:22:07 51°19.441 2°50.797 5.3 27 14.4 100270 42
2011-07-19 07:22:13 51°19.46 2°50.783 5.2 301 14.4 100270 42
2011-07-19 07:22:17 51°19.473 2°50.774 5 26 14.4 100270 43
2011-07-19 07:22:21 51°19.487 2°50.765 5.5 303 14.4 100270 43
2011-07-19 07:22:27 51°19.507 2°50.752 5.9 25 14.4 100270 44
2011-07-19 07:22:32 51°19.523 2°50.741 5.6 304 14.4 100270 44
2011-07-19 07:22:37 51°19.539 2°50.73 6 20 14.4 100270 42
2011-07-19 07:22:41 51°19.553 2°50.721 6 310 14.4 100270 42
2011-07-19 07:22:47 51°19.572 2°50.707 5.8 21 14.4 100270 44
2011-07-19 07:22:53 51°19.592 2°50.693 6.1 308 14.4 100270 44
2011-07-19 07:22:57 51°19.605 2°50.683 6.6 20 14.4 100270 43
2011-07-19 07:23:01 51°19.617 2°50.673 7 301 14.4 100270 43
2011-07-19 07:23:07 51°19.637 2°50.658 6.5 23 14.4 100270 44
2011-07-19 07:23:13 51°19.656 2°50.642 6.5 308 14.4 100270 44
2011-07-19 07:23:17 51°19.669 2°50.631 4.9 26 14.4 100280 42
2011-07-19 07:23:23 51°19.688 2°50.615 5.5 305 14.4 100280 42
2011-07-19 07:23:27 51°19.701 2°50.604 6.2 22 14.4 100270 43
2011-07-19 07:23:33 51°19.72 2°50.588 7.4 304 14.4 100270 43
2011-07-19 07:23:37 51°19.733 2°50.577 6.8 28 14.3 100270 44
2011-07-19 07:23:41 51°19.746 2°50.567 5.7 281 14.3 100270 44
2011-07-19 07:23:47 51°19.765 2°50.55 5.7 21 14.4 100270 42
2011-07-19 07:23:53 51°19.784 2°50.534 6.2 310 14.4 100270 42
2011-07-19 07:23:57 51°19.797 2°50.523 6.7 21 14.3 100270 44
2011-07-19 07:24:01 51°19.81 2°50.512 6.4 301 14.3 100270 44
2011-07-19 07:24:07 51°19.829 2°50.496 5.9 24 14.4 100270 43
2011-07-19 07:24:13 51°19.849 2°50.481 6.3 308 14.4 100270 43
2011-07-19 07:24:17 51°19.862 2°50.471 5 24 14.3 100270 44
2011-07-19 07:24:21 51°19.875 2°50.461 5.6 304 14.3 100270 44
2011-07-19 07:24:27 51°19.895 2°50.446 5.4 25 14.4 100270 42
2011-07-19 07:24:33 51°19.915 2°50.433 5.4 305 14.4 100270 42
2011-07-19 07:24:37 51°19.928 2°50.424 6.1 27 14.3 100270 44
2011-07-19 07:24:41 51°19.941 2°50.415 5.4 279 14.3 100270 44
2011-07-19 07:24:47 51°19.962 2°50.402 4.8 29 14.3 100270 44
2011-07-19 07:24:52 51°19.978 2°50.391 6.2 306 14.3 100270 44
2011-07-19 07:24:57 51°19.995 2°50.38 5.4 26 14.3 100270 43
2011-07-19 07:25:01 51°20.008 2°50.371 5.3 303 14.3 100270 43
2011-07-19 07:25:07 51°20.028 2°50.357 5.7 21 14.3 100270 43
2011-07-19 07:25:13 51°20.048 2°50.343 5.9 303 14.3 100270 43
2011-07-19 07:25:17 51°20.061 2°50.334 4.9 21 14.3 100270 44
2011-07-19 07:25:23 51°20.081 2°50.321 5.3 302 14.3 100270 44
2011-07-19 07:25:27 51°20.094 2°50.312 5.6 28 14.3 100270 44
2011-07-19 07:25:33 51°20.114 2°50.299 5 309 14.3 100270 44
2011-07-19 07:25:37 51°20.127 2°50.29 5.2 21 14.3 100280 41
2011-07-19 07:25:43 51°20.147 2°50.276 5 307 14.3 100280 41
2011-07-19 07:25:47 51°20.16 2°50.266 6.2 26 14.3 100280 45
2011-07-19 07:25:53 51°20.18 2°50.251 5 307 14.3 100280 45
2011-07-19 07:25:57 51°20.193 2°50.241 5.1 28 14.3 100270 44
2011-07-19 07:26:01 51°20.206 2°50.231 5.4 307 14.3 100270 44
2011-07-19 07:26:07 51°20.225 2°50.215 4.5 24 14.4 100280 43
2011-07-19 07:26:13 51°20.244 2°50.199 5.2 304 14.4 100280 43
2011-07-19 07:26:17 51°20.257 2°50.188 4.7 23 14.3 100270 44
2011-07-19 07:26:21 51°20.27 2°50.177 6.2 307 14.3 100270 44
2011-07-19 07:26:27 51°20.289 2°50.161 5.2 28 14.3 100270 43
2011-07-19 07:26:33 51°20.308 2°50.145 5.7 306 14.3 100270 43
2011-07-19 07:26:37 51°20.321 2°50.134 5.8 27 14.3 100280 42
2011-07-19 07:26:41 51°20.334 2°50.124 5.8 280 14.3 100280 42
2011-07-19 07:26:47 51°20.353 2°50.108 5.2 27 14.4 100270 44
2011-07-19 07:26:53 51°20.373 2°50.093 6.2 309 14.4 100270 44
2011-07-19 07:26:57 51°20.385 2°50.082 7.1 19 14.4 100270 45
2011-07-19 07:27:01 51°20.398 2°50.072 5.8 304 14.4 100270 45
2011-07-19 07:27:07 51°20.418 2°50.057 5.7 22 14.4 100270 45
2011-07-19 07:27:12 51°20.434 2°50.044 5.1 308 14.4 100270 45
2011-07-19 07:27:17 51°20.45 2°50.032 5.5 20 14.4 100270 45
2011-07-19 07:27:21 51°20.463 2°50.022 6.6 309 14.4 100270 45
2011-07-19 07:27:27 51°20.483 2°50.008 6.6 21 14.4 100270 43
2011-07-19 07:27:33 51°20.502 2°49.994 5.6 308 14.4 100270 43
2011-07-19 07:27:37 51°20.516 2°49.985 5.8 20 14.4 100270 43
2011-07-19 07:27:43 51°20.535 2°49.971 6.5 304 14.4 100270 43
2011-07-19 07:27:47 51°20.549 2°49.962 6.4 27 14.4 100280 45
2011-07-19 07:27:53 51°20.568 2°49.948 6.8 308 14.4 100280 45
2011-07-19 07:27:57 51°20.581 2°49.939 6.8 25 14.4 100270 44
2011-07-19 07:28:03 51°20.601 2°49.924 7.2 308 14.4 100270 44
2011-07-19 07:28:07 51°20.614 2°49.915 6.4 23 14.4 100270 43
2011-07-19 07:28:13 51°20.634 2°49.901 7.1 308 14.4 100270 43
2011-07-19 07:28:17 51°20.647 2°49.891 5.7 21 14.3 100270 43
2011-07-19 07:28:21 51°20.66 2°49.881 5.6 305 14.3 100270 43
2011-07-19 07:28:27 51°20.679 2°49.866 5.9 23 14.4 100270 43
2011-07-19 07:28:33 51°20.698 2°49.851 5.5 308 14.4 100270 43
2011-07-19 07:28:37 51°20.711 2°49.84 5.9 22 14.3 100270 43
2011-07-19 07:28:41 51°20.724 2°49.83 5.4 284 14.3 100270 43
2011-07-19 07:28:47 51°20.743 2°49.813 4.9 26 14.3 100270 42
2011-07-19 07:28:53 51°20.762 2°49.797 5.1 307 14.3 100270 42
2011-07-19 07:28:57 51°20.775 2°49.787 5.1 22 14.3 100270 43
2011-07-19 07:29:01 51°20.788 2°49.777 5.7 307 14.3 100270 43
2011-07-19 07:29:07 51°20.807 2°49.762 5.9 29 14.4 100280 44
2011-07-19 07:29:12 51°20.823 2°49.749 4.8 309 14.4 100280 44
2011-07-19 07:29:17 51°20.839 2°49.737 5.1 26 14.4 100280 43
2011-07-19 07:29:21 51°20.852 2°49.728 4.9 304 14.4 100280 43
2011-07-19 07:29:27 51°20.872 2°49.714 5.2 27 14.4 100270 45
2011-07-19 07:29:33 51°20.891 2°49.7 6.2 309 14.4 100270 45
2011-07-19 07:29:37 51°20.904 2°49.691 5.7 22 14.4 100280 45
2011-07-19 07:29:41 51°20.917 2°49.682 5.7 304 14.4 100280 45
2011-07-19 07:29:47 51°20.937 2°49.669 5.5 25 14.4 100280 45
2011-07-19 07:29:53 51°20.957 2°49.656 5 302 14.4 100280 45
2011-07-19 07:29:57 51°20.97 2°49.647 5.3 25 14.4 100270 45
2011-07-19 07:30:03 51°20.99 2°49.634 5.3 309 14.4 100270 45
2011-07-19 07:30:07 51°21.003 2°49.625 5.3 22 14.4 100280 43
2011-07-19 07:30:13 51°21.022 2°49.611 5.7 306 14.4 100280 43
2011-07-19 07:30:17 51°21.035 2°49.601 5.2 22 14.4 100280 45
2011-07-19 07:30:21 51°21.048 2°49.591 6.2 304 14.4 100280 45
2011-07-19 07:30:27 51°21.068 2°49.577 5.7 28 14.4 100280 43
2011-07-19 07:30:33 51°21.087 2°49.562 7.1 306 14.4 100280 43
2011-07-19 07:30:37 51°21.099 2°49.551 6.8 20 14.4 100270 43
2011-07-19 07:30:41 51°21.112 2°49.541 5.5 285 14.4 100270 43
2011-07-19 07:30:47 51°21.131 2°49.525 5.8 25 14.4 100270 44
2011-07-19 07:30:53 51°21.151 2°49.509 5.8 301 14.4 100270 44
2011-07-19 07:30:57 51°21.163 2°49.499 5.8 26 14.4 100270 43
2011-07-19 07:31:01 51°21.176 2°49.488 5 303 14.4 100270 43
2011-07-19 07:31:07 51°21.195 2°49.473 6.5 28 14.4 100270 45
2011-07-19 07:31:13 51°21.215 2°49.458 6 302 14.4 100270 45
2011-07-19 07:31:17 51°21.228 2°49.448 6.2 24 14.4 100280 43
2011-07-19 07:31:21 51°21.241 2°49.439 4.8 308 14.4 100280 43
2011-07-19 07:31:27 51°21.261 2°49.425 6.1 23 14.4 100280 45
2011-07-19 07:31:32 51°21.277 2°49.413 5.2 306 14.4 100280 45
2011-07-19 07:31:37 51°21.294 2°49.403 5.5 22 14.4 100280 43
2011-07-19 07:31:41 51°21.307 2°49.393 4.2 285 14.4 100280 43
2011-07-19 07:31:47 51°21.328 2°49.38 5.1 27 14.4 100280 44
2011-07-19 07:31:53 51°21.348 2°49.366 4.9 306 14.4 100280 44
2011-07-19 07:31:57 51°21.361 2°49.357 4.2 27 14.4 100280 44
2011-07-19 07:32:03 51°21.381 2°49.344 5 303 14.4 100280 44
2011-07-19 07:32:07 51°21.394 2°49.335 4.8 26 14.4 100280 44
2011-07-19 07:32:13 51°21.413 2°49.32 5.7 307 14.4 100280 44
2011-07-19 07:32:17 51°21.426 2°49.31 5.2 24 14.4 100280 43
2011-07-19 07:32:23 51°21.446 2°49.294 5.5 308 14.4 100280 43
2011-07-19 07:32:27 51°21.459 2°49.284 5 29 14.4 100280 43
2011-07-19 07:32:33 51°21.478 2°49.268 5.8 303 14.4 100280 43
2011-07-19 07:32:37 51°21.49 2°49.257 5.4 28 14.4 100280 44
2011-07-19 07:32:41 51°21.503 2°49.245 5.2 279 14.4 100280 44
2011-07-19 07:32:47 51°21.522 2°49.228 5.5 23 14.5 100270 43
2011-07-19 07:32:53 51°21.541 2°49.211 6 307 14.5 100270 43
2011-07-19 07:32:57 51°21.554 2°49.2 5.6 23 14.5 100280 45
2011-07-19 07:33:01 51°21.567 2°49.19 5.5 303 14.5 100280 45
2011-07-19 07:33:07 51°21.586 2°49.174 4.9 26 14.4 100280 45
2011-07-19 07:33:13 51°21.605 2°49.158 4.9 307 14.4 100280 45
2011-07-19 07:33:17 51°21.618 2°49.148 5 23 14.5 100280 44
2011-07-19 07:33:21 51°21.631 2°49.138 4.7 309 14.5 100280 44
2011-07-19 07:33:27 51°21.65 2°49.122 5.8 26 14.5 100280 45
2011-07-19 07:33:32 51°21.666 2°49.11 5.8 310 14.5 100280 45
2011-07-19 07:33:37 51°21.683 2°49.097 6.2 19 14.4 100280 43
2011-07-19 07:33:41 51°21.696 2°49.087 5.2 304 14.4 100280 43
2011-07-19 07:33:47 51°21.715 2°49.072 6.4 25 14.4 100280 44
2011-07-19 07:33:52 51°21.731 2°49.059 6.9 309 14.4 100280 44
2011-07-19 07:33:57 51°21.747 2°49.046 6.7 21 14.4 100280 45
2011-07-19 07:34:01 51°21.76 2°49.036 5.1 307 14.4 100280 45
2011-07-19 07:34:07 51°21.779 2°49.02 5.3 29 14.5 100280 43
2011-07-19 07:34:13 51°21.799 2°49.004 6.9 308 14.5 100280 43
2011-07-19 07:34:17 51°21.811 2°48.993 7.1 20 14.5 100280 44
2011-07-19 07:34:23 51°21.83 2°48.977 6 303 14.5 100280 44
2011-07-19 07:34:27 51°21.843 2°48.966 5.6 25 14.5 100280 45
2011-07-19 07:34:33 51°21.862 2°48.95 5.5 309 14.5 100280 45
2011-07-19 07:34:37 51°21.875 2°48.94 5.5 21 14.5 100280 43
2011-07-19 07:34:43 51°21.895 2°48.924 6 285 14.5 100280 43
2011-07-19 07:34:47 51°21.907 2°48.914 5.7 21 14.5 100270 43
2011-07-19 07:34:53 51°21.927 2°48.898 5.4 304 14.5 100270 43
2011-07-19 07:34:57 51°21.939 2°48.887 7.2 22 14.5 100280 43
2011-07-19 07:35:01 51°21.952 2°48.876 6.5 303 14.5 100280 43
2011-07-19 07:35:07 51°21.971 2°48.859 6.3 19 14.4 100280 45
2011-07-19 07:35:13 51°21.99 2°48.842 6.6 304 14.4 100280 45
2011-07-19 07:35:17 51°22.002 2°48.831 6.3 25 14.5 100280 45
2011-07-19 07:35:21 51°22.015 2°48.819 6.8 303 14.5 100280 45
2011-07-19 07:35:27 51°22.034 2°48.803 6 25 14.4 100280 45
2011-07-19 07:35:33 51°22.053 2°48.785 5.9 308 14.4 100280 45
2011-07-19 07:35:37 51°22.065 2°48.774 5.3 24 14.5 100270 45
2011-07-19 07:35:41 51°22.078 2°48.763 5.3 280 14.5 100270 45
2011-07-19 07:35:47 51°22.096 2°48.746 5.8 22 14.4 100280 45
2011-07-19 07:35:53 51°22.115 2°48.729 5.8 309 14.4 100280 45
2011-07-19 07:35:57 51°22.128 2°48.717 5.5 27 14.4 100280 44
2011-07-19 07:36:01 51°22.141 2°48.706 6.2 309 14.4 100280 44
2011-07-19 07:36:07 51°22.16 2°48.69 6.6 21 14.4 100280 45
2011-07-19 07:36:13 51°22.179 2°48.674 5.4 303 14.4 100280 45
2011-07-19 07:36:17 51°22.192 2°48.664 5.7 28 14.4 100280 42
2011-07-19 07:36:21 51°22.205 2°48.654 4.9 306 14.4 100280 42
2011-07-19 07:36:27 51°22.225 2°48.64 4.8 19 14.5 100280 43
2011-07-19 07:36:33 51°22.245 2°48.626 5.2 308 14.5 100280 43
2011-07-19 07:36:37 51°22.258 2°48.616 5.3 27 14.4 100280 45
2011-07-19 07:36:43 51°22.278 2°48.602 5.7 278 14.4 100280 45
2011-07-19 07:36:47 51°22.291 2°48.592 4.8 27 14.4 100280 45
2011-07-19 07:36:53 51°22.31 2°48.578 5.3 308 14.4 100280 45
2011-07-19 07:36:57 51°22.323 2°48.568 6.4 20 14.4 100280 43
2011-07-19 07:37:03 51°22.343 2°48.553 5.8 304 14.4 100280 43
2011-07-19 07:37:07 51°22.356 2°48.543 5.7 25 14.4 100280 45
2011-07-19 07:37:13 51°22.375 2°48.527 6.3 302 14.4 100280 45
2011-07-19 07:37:17 51°22.387 2°48.516 5.2 27 14.4 100280 43
2011-07-19 07:37:21 51°22.4 2°48.506 5.5 307 14.4 100280 43
2011-07-19 07:37:27 51°22.419 2°48.489 5.7 27 14.4 100280 44
2011-07-19 07:37:33 51°22.438 2°48.472 5.6 305 14.4 100280 44
2011-07-19 07:37:37 51°22.45 2°48.46 5.9 26 14.4 100280 45
2011-07-19 07:37:41 51°22.463 2°48.449 5.1 308 14.4 100280 45
2011-07-19 07:37:47 51°22.481 2°48.432 5.2 20 14.4 100280 43
2011-07-19 07:37:53 51°22.5 2°48.415 4.8 308 14.4 100280 43
2011-07-19 07:37:57 51°22.512 2°48.404 4.9 26 14.4 100280 44
2011-07-19 07:38:01 51°22.525 2°48.393 5.1 306 14.4 100280 44
2011-07-19 07:38:07 51°22.545 2°48.377 5.5 26 14.4 100280 43
2011-07-19 07:38:12 51°22.56 2°48.364 6.3 303 14.4 100280 43
2011-07-19 07:38:17 51°22.577 2°48.351 6.3 27 14.4 100280 43
2011-07-19 07:38:21 51°22.589 2°48.341 7.2 308 14.4 100280 43
2011-07-19 07:38:27 51°22.609 2°48.326 5.7 26 14.5 100280 45
2011-07-19 07:38:33 51°22.629 2°48.311 6.5 307 14.5 100280 45
2011-07-19 07:38:37 51°22.642 2°48.302 6.3 22 14.5 100280 45
2011-07-19 07:38:43 51°22.662 2°48.288 5.7 285 14.5 100280 45
2011-07-19 07:38:47 51°22.675 2°48.278 5.1 26 14.5 100280 45
2011-07-19 07:38:53 51°22.695 2°48.264 6.2 308 14.5 100280 45
2011-07-19 07:38:57 51°22.707 2°48.254 6.2 21 14.5 100280 43
2011-07-19 07:39:03 51°22.727 2°48.239 4.5 303 14.5 100280 43
2011-07-19 07:39:07 51°22.74 2°48.229 5 27 14.5 100280 44
2011-07-19 07:39:13 51°22.76 2°48.215 5.2 303 14.5 100280 44
2011-07-19 07:39:17 51°22.773 2°48.204 4.6 21 14.5 100280 43
2011-07-19 07:39:21 51°22.785 2°48.194 5.9 301 14.5 100280 43
2011-07-19 07:39:27 51°22.805 2°48.178 5.3 29 14.5 100280 45
2011-07-19 07:39:33 51°22.823 2°48.161 6 302 14.5 100280 45
2011-07-19 07:39:37 51°22.836 2°48.15 5.9 22 14.5 100280 45
2011-07-19 07:39:41 51°22.849 2°48.139 5.7 305 14.5 100280 45
2011-07-19 07:39:47 51°22.868 2°48.122 5.6 21 14.5 100280 43
2011-07-19 07:39:53 51°22.886 2°48.105 4.8 304 14.5 100280 43
2011-07-19 07:39:57 51°22.899 2°48.093 4.9 27 14.5 100280 43
2011-07-19 07:40:01 51°22.912 2°48.082 5.1 303 14.5 100280 43
2011-07-19 07:40:07 51°22.93 2°48.065 5.1 27 14.5 100280 43
2011-07-19 07:40:13 51°22.949 2°48.048 4.7 303 14.5 100280 43
2011-07-19 07:40:17 51°22.962 2°48.036 5.6 27 14.5 100280 43
2011-07-19 07:40:21 51°22.975 2°48.026 6.1 305 14.5 100280 43
2011-07-19 07:40:27 51°22.994 2°48.009 6.3 29 14.5 100280 43
2011-07-19 07:40:32 51°23.01 2°47.995 5.2 302 14.5 100280 43
2011-07-19 07:40:37 51°23.025 2°47.982 4.8 21 14.6 100280 43
2011-07-19 07:40:41 51°23.038 2°47.971 6 277 14.6 100280 43
2011-07-19 07:40:47 51°23.058 2°47.956 6.1 22 14.5 100280 45
2011-07-19 07:40:53 51°23.077 2°47.942 6.1 304 14.5 100280 45
2011-07-19 07:40:57 51°23.09 2°47.932 5.1 26 14.5 100280 43
2011-07-19 07:41:03 51°23.11 2°47.917 5.7 307 14.5 100280 43
2011-07-19 07:41:07 51°23.123 2°47.908 5.8 28 14.5 100280 43
2011-07-19 07:41:13 51°23.142 2°47.894 5.5 304 14.5 100280 43
2011-07-19 07:41:17 51°23.155 2°47.884 5.5 27 14.5 100290 45
2011-07-19 07:41:23 51°23.175 2°47.869 6.1 305 14.5 100290 45
2011-07-19 07:41:27 51°23.188 2°47.859 6.1 20 14.5 100280 45
2011-07-19 07:41:33 51°23.207 2°47.844 6 306 14.5 100280 45
2011-07-19 07:41:37 51°23.22 2°47.833 5.5 28 14.5 100280 42
2011-07-19 07:41:41 51°23.232 2°47.823 6.5 278 14.5 100280 42
2011-07-19 07:41:47 51°23.251 2°47.806 4.7 27 14.5 100280 43
2011-07-19 07:41:53 51°23.27 2°47.789 5.3 307 14.5 100280 43
2011-07-19 07:41:57 51°23.283 2°47.778 6 27 14.5 100280 45
2011-07-19 07:42:01 51°23.295 2°47.767 6.1 308 14.5 100280 45
2011-07-19 07:42:07 51°23.315 2°47.75 5.2 27 14.5 100280 45
2011-07-19 07:42:13 51°23.334 2°47.733 5.5 301 14.5 100280 45
2011-07-19 07:42:17 51°23.346 2°47.722 6.5 27 14.5 100290 44
2011-07-19 07:42:21 51°23.359 2°47.711 5.8 304 14.5 100290 44
2011-07-19 07:42:27 51°23.378 2°47.693 6.5 21 14.5 100280 43
2011-07-19 07:42:33 51°23.397 2°47.676 5.7 301 14.5 100280 43
2011-07-19 07:42:37 51°23.409 2°47.665 6.8 26 14.5 100280 45
2011-07-19 07:42:41 51°23.422 2°47.654 5.7 286 14.5 100280 45
2011-07-19 07:42:47 51°23.441 2°47.638 6.6 28 14.5 100280 43
2011-07-19 07:42:53 51°23.46 2°47.622 5.6 305 14.5 100280 43
2011-07-19 07:42:57 51°23.473 2°47.612 6 20 14.5 100280 44
2011-07-19 07:43:01 51°23.486 2°47.602 5.6 309 14.5 100280 44
2011-07-19 07:43:07 51°23.506 2°47.587 5.4 25 14.5 100280 45
2011-07-19 07:43:13 51°23.525 2°47.572 5.3 304 14.5 100280 45
2011-07-19 07:43:17 51°23.538 2°47.563 5.3 27 14.5 100280 45
2011-07-19 07:43:23 51°23.558 2°47.549 5.4 308 14.5 100280 45
2011-07-19 07:43:27 51°23.571 2°47.539 5.3 20 14.5 100280 43
2011-07-19 07:43:33 51°23.591 2°47.525 5.2 302 14.5 100280 43
2011-07-19 07:43:37 51°23.604 2°47.516 4.7 29 14.5 100280 44
2011-07-19 07:43:43 51°23.624 2°47.501 5 303 14.5 100280 44
2011-07-19 07:43:47 51°23.637 2°47.492 5.3 23 14.5 100280 45
2011-07-19 07:43:53 51°23.656 2°47.477 6.6 301 14.5 100280 45
2011-07-19 07:43:57 51°23.669 2°47.466 5.7 26 14.5 100280 43
2011-07-19 07:44:01 51°23.682 2°47.456 5.4 301 14.5 100280 43
2011-07-19 07:44:07 51°23.702 2°47.441 4.6 20 14.5 100280 45
2011-07-19 07:44:13 51°23.721 2°47.426 6.6 307 14.5 100280 45
2011-07-19 07:44:17 51°23.734 2°47.416 5.4 25 14.5 100280 42
2011-07-19 07:44:21 51°23.747 2°47.406 5.6 307 14.5 100280 42
2011-07-19 07:44:27 51°23.766 2°47.39 5.4 20 14.5 100280 44
2011-07-19 07:44:33 51°23.785 2°47.374 6.3 301 14.5 100280 44
2011-07-19 07:44:37 51°23.798 2°47.363 6.7 22 14.6 100280 43
2011-07-19 07:44:41 51°23.81 2°47.351 5 286 14.6 100280 43
2011-07-19 07:44:47 51°23.829 2°47.334 6.2 26 14.6 100280 44
2011-07-19 07:44:53 51°23.847 2°47.316 6.7 302 14.6 100280 44
2011-07-19 07:44:57 51°23.86 2°47.306 5.4 25 14.6 100280 44
2011-07-19 07:45:01 51°23.873 2°47.294 6 302 14.6 100280 44
2011-07-19 07:45:07 51°23.892 2°47.277 5.5 26 14.6 100280 45
2011-07-19 07:45:13 51°23.91 2°47.261 5.1 307 14.6 100280 45
2011-07-19 07:45:17 51°23.923 2°47.249 4.9 27 14.6 100280 43
2011-07-19 07:45:23 51°23.942 2°47.233 5 301 14.6 100280 43
2011-07-19 07:45:27 51°23.954 2°47.221 5.5 22 14.5 100280 43
2011-07-19 07:45:33 51°23.973 2°47.205 5.2 302 14.5 100280 43
2011-07-19 07:45:37 51°23.985 2°47.193 5.2 20 14.6 100290 43
2011-07-19 07:45:43 51°24.004 2°47.177 6.2 305 14.6 100290 43
2011-07-19 07:45:47 51°24.017 2°47.165 5.3 21 14.6 100280 45
2011-07-19 07:45:53 51°24.036 2°47.148 5.5 307 14.6 100280 45
2011-07-19 07:45:57 51°24.048 2°47.137 5.4 22 14.6 100290 43
2011-07-19 07:46:01 51°24.06 2°47.125 4.5 303 14.6 100290 43
2011-07-19 07:46:07 51°24.079 2°47.109 5 22 14.6 100280 45
2011-07-19 07:46:13 51°24.098 2°47.092 5.2 301 14.6 100280 45
2011-07-19 07:46:17 51°24.111 2°47.081 4.7 29 14.6 100280 43
2011-07-19 07:46:21 51°24.123 2°47.07 4.6 307 14.6 100280 43
2011-07-19 07:46:27 51°24.142 2°47.054 6.1 27 14.6 100290 43
2011-07-19 07:46:33 51°24.161 2°47.039 6.2 304 14.6 100290 43
2011-07-19 07:46:37 51°24.174 2°47.03 6.4 28 14.6 100280 43
2011-07-19 07:46:41 51°24.187 2°47.019 5.5 280 14.6 100280 43
2011-07-19 07:46:47 51°24.207 2°47.006 6.6 22 14.6 100280 45
2011-07-19 07:46:53 51°24.226 2°46.992 6.4 301 14.6 100280 45
2011-07-19 07:46:57 51°24.239 2°46.983 5.1 22 14.6 100280 44
2011-07-19 07:47:01 51°24.252 2°46.973 5.8 301 14.6 100280 44
2011-07-19 07:47:07 51°24.272 2°46.959 5 26 14.6 100280 44
2011-07-19 07:47:13 51°24.291 2°46.944 5 304 14.6 100280 44
2011-07-19 07:47:17 51°24.304 2°46.934 5.2 26 14.6 100280 43
2011-07-19 07:47:21 51°24.317 2°46.924 5.2 305 14.6 100280 43
2011-07-19 07:47:27 51°24.336 2°46.91 4.3 24 14.6 100280 43
2011-07-19 07:47:33 51°24.355 2°46.895 5.3 309 14.6 100280 43
2011-07-19 07:47:37 51°24.368 2°46.885 5.2 28 14.6 100280 45
2011-07-19 07:47:42 51°24.384 2°46.872 5.5 308 14.6 100280 45
2011-07-19 07:47:47 51°24.4 2°46.859 5.3 27 14.6 100290 44
2011-07-19 07:47:52 51°24.416 2°46.846 6 302 14.6 100290 44
2011-07-19 07:47:57 51°24.432 2°46.833 6.1 21 14.5 100280 43
2011-07-19 07:48:02 51°24.447 2°46.818 6.1 303 14.5 100280 43
2011-07-19 07:48:07 51°24.463 2°46.805 6.1 21 14.6 100280 43
2011-07-19 07:48:12 51°24.478 2°46.79 6.3 302 14.6 100280 43
2011-07-19 07:48:17 51°24.494 2°46.776 5.5 29 14.6 100280 45
2011-07-19 07:48:22 51°24.509 2°46.761 5.8 308 14.6 100280 45
2011-07-19 07:48:27 51°24.525 2°46.747 6 25 14.6 100280 45
2011-07-19 07:48:32 51°24.54 2°46.733 5.1 306 14.6 100280 45
2011-07-19 07:48:37 51°24.556 2°46.719 5.4 21 14.6 100280 45
2011-07-19 07:48:42 51°24.571 2°46.706 5.5 309 14.6 100280 45
2011-07-19 07:48:47 51°24.587 2°46.693 5.7 25 14.6 100280 43
2011-07-19 07:48:53 51°24.606 2°46.677 5.7 302 14.6 100280 43
2011-07-19 07:48:57 51°24.619 2°46.667 6.1 27 14.5 100280 44
2011-07-19 07:49:01 51°24.632 2°46.657 5.8 305 14.5 100280 44
2011-07-19 07:49:07 51°24.651 2°46.642 5.4 23 14.5 100280 45
2011-07-19 07:49:13 51°24.67 2°46.627 5.5 303 14.5 100280 45
2011-07-19 07:49:17 51°24.683 2°46.617 6 27 14.5 100280 44
2011-07-19 07:49:21 51°24.696 2°46.607 6 303 14.5 100280 44
2011-07-19 07:49:27 51°24.715 2°46.593 6.3 27 14.5 100280 45
2011-07-19 07:49:32 51°24.732 2°46.581 6.2 304 14.5 100280 45
2011-07-19 07:49:37 51°24.748 2°46.568 5.7 20 14.5 100280 42
2011-07-19 07:49:41 51°24.76 2°46.558 5.7 303 14.5 100280 42
2011-07-19 07:49:47 51°24.78 2°46.543 4.7 20 14.6 100280 45
2011-07-19 07:49:52 51°24.796 2°46.531 3.3 307 14.6 100280 45
2011-07-19 07:49:57 51°24.812 2°46.518 5.9 22 14.5 100280 43
2011-07-19 07:50:01 51°24.825 2°46.508 5.7 303 14.5 100280 43
2011-07-19 07:50:07 51°24.844 2°46.492 5.7 29 14.5 100280 43
2011-07-19 07:50:12 51°24.859 2°46.478 5.6 302 14.5 100280 43
2011-07-19 07:50:17 51°24.875 2°46.464 6.1 27 14.5 100280 45
2011-07-19 07:50:21 51°24.887 2°46.453 7 309 14.5 100280 45
2011-07-19 07:50:27 51°24.906 2°46.435 6 20 14.6 100280 45
2011-07-19 07:50:33 51°24.924 2°46.418 5.9 303 14.6 100280 45
2011-07-19 07:50:37 51°24.937 2°46.406 6.3 24 14.5 100280 45
2011-07-19 07:50:41 51°24.949 2°46.395 6.4 309 14.5 100280 45
2011-07-19 07:50:47 51°24.968 2°46.378 6 20 14.5 100280 44
2011-07-19 07:50:53 51°24.987 2°46.362 6.3 306 14.5 100280 44
2011-07-19 07:50:57 51°24.999 2°46.351 6.1 27 14.6 100280 43
2011-07-19 07:51:01 51°25.012 2°46.34 5.4 306 14.6 100280 43
2011-07-19 07:51:07 51°25.031 2°46.324 6.4 28 14.6 100280 44
2011-07-19 07:51:13 51°25.05 2°46.308 5.1 304 14.6 100280 44
2011-07-19 07:51:17 51°25.062 2°46.298 6.1 27 14.6 100280 44
2011-07-19 07:51:21 51°25.075 2°46.287 5.2 302 14.6 100280 44
2011-07-19 07:51:27 51°25.094 2°46.271 5.2 27 14.6 100280 45
2011-07-19 07:51:33 51°25.113 2°46.254 4.7 303 14.6 100280 45
2011-07-19 07:51:37 51°25.125 2°46.244 4.9 26 14.6 100280 45
2011-07-19 07:51:41 51°25.138 2°46.233 5.1 305 14.6 100280 45
2011-07-19 07:51:47 51°25.156 2°46.217 5.4 27 14.6 100280 44
2011-07-19 07:51:52 51°25.172 2°46.203 5.3 302 14.6 100280 44
2011-07-19 07:51:57 51°25.188 2°46.189 5.3 23 14.6 100280 45
2011-07-19 07:52:01 51°25.2 2°46.178 4.1 309 14.6 100280 45
2011-07-19 07:52:07 51°25.219 2°46.162 4.3 26 14.6 100280 44
2011-07-19 07:52:12 51°25.234 2°46.148 4.7 303 14.6 100280 44
2011-07-19 07:52:17 51°25.25 2°46.135 4.2 25 14.7 100280 42
2011-07-19 07:52:21 51°25.263 2°46.125 5 308 14.7 100280 42
2011-07-19 07:52:27 51°25.283 2°46.111 5.8 21 14.6 100280 45
2011-07-19 07:52:32 51°25.299 2°46.1 4.8 309 14.6 100280 45
2011-07-19 07:52:37 51°25.315 2°46.088 4.3 23 14.6 100280 43
2011-07-19 07:52:41 51°25.328 2°46.08 4.6 309 14.6 100280 43
2011-07-19 07:52:47 51°25.348 2°46.068 3.8 27 14.7 100280 45
2011-07-19 07:52:53 51°25.368 2°46.056 4.5 304 14.7 100280 45
2011-07-19 07:52:57 51°25.382 2°46.048 5.3 22 14.7 100280 45
2011-07-19 07:53:01 51°25.395 2°46.04 4.7 302 14.7 100280 45
2011-07-19 07:53:07 51°25.415 2°46.027 4.5 28 14.7 100280 45
2011-07-19 07:53:13 51°25.434 2°46.014 4.5 309 14.7 100280 45
2011-07-19 07:53:17 51°25.448 2°46.005 4.3 28 14.7 100280 45
2011-07-19 07:53:21 51°25.461 2°45.996 4.3 303 14.7 100280 45
2011-07-19 07:53:27 51°25.48 2°45.983 5.1 25 14.7 100280 43
2011-07-19 07:53:33 51°25.5 2°45.969 5.4 304 14.7 100280 43
2011-07-19 07:53:37 51°25.513 2°45.959 5.1 19 14.7 100280 43
2011-07-19 07:53:41 51°25.526 2°45.95 4.8 309 14.7 100280 43
2011-07-19 07:53:47 51°25.545 2°45.936 4.5 21 14.7 100280 43
2011-07-19 07:53:53 51°25.565 2°45.922 4 304 14.7 100280 43
2011-07-19 07:53:57 51°25.578 2°45.913 4 23 14.7 100280 45
2011-07-19 07:54:01 51°25.591 2°45.904 5 303 14.7 100280 45
2011-07-19 07:54:07 51°25.611 2°45.89 4.3 27 14.7 100280 43
2011-07-19 07:54:12 51°25.627 2°45.878 5.5 307 14.7 100280 43
2011-07-19 07:54:17 51°25.643 2°45.866 5.2 28 14.7 100280 43
2011-07-19 07:54:21 51°25.656 2°45.857 5.4 302 14.7 100280 43
2011-07-19 07:54:27 51°25.675 2°45.843 5.9 28 14.7 100280 45
2011-07-19 07:54:32 51°25.691 2°45.831 5.3 303 14.7 100280 45
2011-07-19 07:54:37 51°25.707 2°45.818 5.7 22 14.7 100280 43
2011-07-19 07:54:41 51°25.72 2°45.808 5.8 280 14.7 100280 43
2011-07-19 07:54:47 51°25.74 2°45.793 5.7 27 14.7 100280 43
2011-07-19 07:54:53 51°25.759 2°45.778 5.3 309 14.7 100280 43
2011-07-19 07:54:57 51°25.772 2°45.768 4.9 25 14.7 100270 43
2011-07-19 07:55:01 51°25.785 2°45.759 5 303 14.7 100270 43
2011-07-19 07:55:07 51°25.804 2°45.745 5.6 25 14.7 100270 45
2011-07-19 07:55:13 51°25.824 2°45.731 5.8 303 14.7 100270 45
2011-07-19 07:55:17 51°25.837 2°45.722 5.4 26 14.7 100280 43
2011-07-19 07:55:21 51°25.851 2°45.713 4.7 308 14.7 100280 43
2011-07-19 07:55:27 51°25.871 2°45.701 4.6 21 14.7 100280 45
2011-07-19 07:55:33 51°25.89 2°45.689 4.5 303 14.7 100280 45
2011-07-19 07:55:37 51°25.904 2°45.681 4.4 22 14.7 100280 43
2011-07-19 07:55:41 51°25.917 2°45.673 4.9 307 14.7 100280 43
2011-07-19 07:55:47 51°25.937 2°45.66 4.6 23 14.7 100280 43
2011-07-19 07:55:53 51°25.958 2°45.648 4 304 14.7 100280 43
2011-07-19 07:55:57 51°25.971 2°45.64 4.6 25 14.7 100280 45
2011-07-19 07:56:01 51°25.984 2°45.631 4.9 304 14.7 100280 45
2011-07-19 07:56:07 51°26.004 2°45.618 4.9 26 14.7 100280 45
2011-07-19 07:56:12 51°26.02 2°45.608 4.5 307 14.7 100280 45
2011-07-19 07:56:17 51°26.037 2°45.597 4.5 24 14.7 100280 45
2011-07-19 07:56:21 51°26.05 2°45.588 4.8 308 14.7 100280 45
2011-07-19 07:56:27 51°26.07 2°45.576 4.4 25 14.8 100280 45
2011-07-19 07:56:32 51°26.086 2°45.565 3.7 307 14.8 100280 45
2011-07-19 07:56:37 51°26.103 2°45.554 3.9 29 14.8 100280 43
2011-07-19 07:56:41 51°26.116 2°45.545 4.8 307 14.8 100280 43
2011-07-19 07:56:47 51°26.136 2°45.531 5.4 20 14.8 100280 44
2011-07-19 07:56:52 51°26.152 2°45.52 5.8 308 14.8 100280 44
2011-07-19 07:56:57 51°26.168 2°45.508 5.8 25 14.8 100280 45
2011-07-19 07:57:01 51°26.181 2°45.498 6.9 309 14.8 100280 45
2011-07-19 07:57:07 51°26.2 2°45.484 5.6 21 14.8 100280 45
2011-07-19 07:57:13 51°26.22 2°45.47 5.2 309 14.8 100280 45
2011-07-19 07:57:17 51°26.233 2°45.461 5.6 27 14.8 100280 45
2011-07-19 07:57:21 51°26.246 2°45.452 5.5 303 14.8 100280 45
2011-07-19 07:57:27 51°26.265 2°45.439 5.2 22 14.8 100280 43
2011-07-19 07:57:33 51°26.285 2°45.425 5.5 304 14.8 100280 43
2011-07-19 07:57:37 51°26.298 2°45.416 5.3 23 14.8 100280 43
2011-07-19 07:57:41 51°26.311 2°45.407 5.7 302 14.8 100280 43
2011-07-19 07:57:47 51°26.331 2°45.393 5.5 23 14.8 100280 44
2011-07-19 07:57:53 51°26.35 2°45.38 4.4 309 14.8 100280 44
2011-07-19 07:57:57 51°26.363 2°45.371 5.6 28 14.8 100280 43
2011-07-19 07:58:01 51°26.376 2°45.362 5.5 309 14.8 100280 43
2011-07-19 07:58:07 51°26.395 2°45.347 5 28 14.8 100280 43
2011-07-19 07:58:13 51°26.415 2°45.332 5.4 308 14.8 100280 43
2011-07-19 07:58:17 51°26.427 2°45.323 4.9 21 14.8 100280 45
2011-07-19 07:58:21 51°26.44 2°45.313 6.1 309 14.8 100280 45
2011-07-19 07:58:27 51°26.46 2°45.298 5.4 19 14.8 100280 43
2011-07-19 07:58:33 51°26.479 2°45.283 5 302 14.8 100280 43
2011-07-19 07:58:37 51°26.491 2°45.273 5.1 22 14.8 100280 43
2011-07-19 07:58:41 51°26.504 2°45.264 5.3 278 14.8 100280 43
2011-07-19 07:58:47 51°26.524 2°45.249 6.2 26 14.8 100280 43
2011-07-19 07:58:52 51°26.54 2°45.237 5.2 306 14.8 100280 43
2011-07-19 07:58:57 51°26.556 2°45.225 5.5 23 14.8 100280 43
2011-07-19 07:59:01 51°26.569 2°45.216 5.9 309 14.8 100280 43
2011-07-19 07:59:07 51°26.588 2°45.201 5.1 21 14.8 100280 45
2011-07-19 07:59:12 51°26.604 2°45.189 5.5 302 14.8 100280 45
2011-07-19 07:59:17 51°26.62 2°45.177 5.4 27 14.8 100280 45
2011-07-19 07:59:21 51°26.633 2°45.167 5.4 307 14.8 100280 45
2011-07-19 07:59:27 51°26.652 2°45.152 6.2 26 14.8 100280 45
2011-07-19 07:59:33 51°26.672 2°45.138 5.1 303 14.8 100280 45
2011-07-19 07:59:37 51°26.684 2°45.128 5 23 14.8 100280 43
2011-07-19 07:59:41 51°26.697 2°45.118 4.3 301 14.8 100280 43
2011-07-19 07:59:47 51°26.717 2°45.104 4.6 21 14.8 100280 43
2011-07-19 07:59:53 51°26.736 2°45.091 4.6 304 14.8 100280 43
2011-07-19 07:59:57 51°26.75 2°45.082 4.8 25 14.8 100280 43
2011-07-19 08:00:01 51°26.763 2°45.074 4.6 301 14.8 100280 43
2011-07-19 08:00:07 51°26.783 2°45.062 5 28 14.8 100290 45
2011-07-19 08:00:13 51°26.803 2°45.05 5 310 14.8 100290 45
2011-07-19 08:00:17 51°26.816 2°45.041 5.9 20 14.8 100290 41
2011-07-19 08:00:21 51°26.829 2°45.033 5.2 308 14.8 100290 41
2011-07-19 08:00:27 51°26.849 2°45.021 6 26 14.8 100280 43
2011-07-19 08:00:33 51°26.868 2°45.007 6.4 307 14.8 100280 43
2011-07-19 08:00:37 51°26.881 2°44.999 6.7 26 14.8 100280 45
2011-07-19 08:00:41 51°26.894 2°44.99 5.9 302 14.8 100280 45
2011-07-19 08:00:47 51°26.914 2°44.977 6.3 22 14.9 100280 45
2011-07-19 08:00:52 51°26.93 2°44.966 5.9 308 14.9 100280 45
2011-07-19 08:00:57 51°26.946 2°44.954 6 22 14.8 100280 43
2011-07-19 08:01:01 51°26.959 2°44.945 6 302 14.8 100280 43
2011-07-19 08:01:07 51°26.979 2°44.931 6.3 26 14.8 100290 44
2011-07-19 08:01:12 51°26.995 2°44.919 6.5 305 14.8 100290 44
2011-07-19 08:01:17 51°27.011 2°44.907 5.3 23 14.8 100280 44
2011-07-19 08:01:21 51°27.024 2°44.898 5.9 307 14.8 100280 44
2011-07-19 08:01:27 51°27.043 2°44.884 6 22 14.8 100280 44
2011-07-19 08:01:33 51°27.063 2°44.87 5.5 304 14.8 100280 44
2011-07-19 08:01:37 51°27.076 2°44.86 5.2 25 14.8 100280 43
2011-07-19 08:01:43 51°27.095 2°44.847 5.6 307 14.8 100280 43
2011-07-19 08:01:47 51°27.108 2°44.837 5.8 25 14.8 100280 42
2011-07-19 08:01:53 51°27.128 2°44.823 5.4 306 14.8 100280 42
2011-07-19 08:01:57 51°27.141 2°44.813 4.9 27 14.8 100280 42
2011-07-19 08:02:01 51°27.153 2°44.803 5.4 307 14.8 100280 42
2011-07-19 08:02:07 51°27.173 2°44.789 5.3 24 14.8 100280 44
2011-07-19 08:02:13 51°27.192 2°44.775 5.9 306 14.8 100280 44
2011-07-19 08:02:17 51°27.206 2°44.766 5.7 28 14.8 100280 44
2011-07-19 08:02:21 51°27.219 2°44.756 5.8 306 14.8 100280 44
2011-07-19 08:02:27 51°27.238 2°44.742 6.2 20 14.8 100280 44
2011-07-19 08:02:33 51°27.258 2°44.728 5.2 303 14.8 100280 44
2011-07-19 08:02:37 51°27.27 2°44.718 6.1 22 14.8 100280 44
2011-07-19 08:02:41 51°27.283 2°44.709 5.2 308 14.8 100280 44
2011-07-19 08:02:47 51°27.303 2°44.694 4.7 20 14.8 100280 43
2011-07-19 08:02:53 51°27.322 2°44.68 5.3 301 14.8 100280 43
2011-07-19 08:02:57 51°27.335 2°44.669 5.5 22 14.8 100280 42
2011-07-19 08:03:01 51°27.348 2°44.659 5.3 303 14.8 100280 42
2011-07-19 08:03:07 51°27.367 2°44.644 5.6 23 14.8 100280 44
2011-07-19 08:03:12 51°27.383 2°44.631 4.7 307 14.8 100280 44
2011-07-19 08:03:17 51°27.399 2°44.619 4.7 22 14.8 100280 44
2011-07-19 08:03:21 51°27.412 2°44.608 4.6 308 14.8 100280 44
2011-07-19 08:03:27 51°27.431 2°44.593 5.2 20 14.8 100290 42
2011-07-19 08:03:32 51°27.447 2°44.581 5 307 14.8 100290 42
2011-07-19 08:03:37 51°27.463 2°44.568 5 20 14.8 100280 44
2011-07-19 08:03:41 51°27.476 2°44.559 4.9 307 14.8 100280 44
2011-07-19 08:03:47 51°27.496 2°44.545 5.2 27 14.8 100280 44
2011-07-19 08:03:53 51°27.516 2°44.533 5.2 309 14.8 100280 44
2011-07-19 08:03:57 51°27.529 2°44.524 5.1 22 14.8 100290 44
2011-07-19 08:04:03 51°27.549 2°44.512 5.4 304 14.8 100290 44
2011-07-19 08:04:07 51°27.562 2°44.504 5.5 21 14.8 100280 44
2011-07-19 08:04:13 51°27.582 2°44.49 5.2 307 14.8 100280 44
2011-07-19 08:04:17 51°27.595 2°44.482 5.8 29 14.8 100280 43
2011-07-19 08:04:21 51°27.608 2°44.473 4.9 303 14.8 100280 43
2011-07-19 08:04:27 51°27.627 2°44.46 5 27 14.8 100290 44
2011-07-19 08:04:33 51°27.647 2°44.447 5 309 14.8 100290 44
2011-07-19 08:04:37 51°27.66 2°44.438 4.8 26 14.9 100280 44
2011-07-19 08:04:41 51°27.673 2°44.43 5.5 310 14.9 100280 44
2011-07-19 08:04:47 51°27.693 2°44.416 5.4 20 14.9 100280 44
2011-07-19 08:04:53 51°27.713 2°44.403 6.5 304 14.9 100280 44
2011-07-19 08:04:57 51°27.726 2°44.396 5.9 22 14.9 100280 43
2011-07-19 08:05:01 51°27.739 2°44.387 5.4 302 14.9 100280 43
2011-07-19 08:05:07 51°27.759 2°44.374 4.6 28 14.9 100290 42
2011-07-19 08:05:13 51°27.779 2°44.361 6 301 14.9 100290 42
2011-07-19 08:05:17 51°27.792 2°44.353 5.3 28 15 100280 42
2011-07-19 08:05:21 51°27.805 2°44.344 5.5 301 15 100280 42
2011-07-19 08:05:27 51°27.825 2°44.33 6.3 24 15 100280 43
2011-07-19 08:05:32 51°27.841 2°44.318 5.7 304 15 100280 43
2011-07-19 08:05:37 51°27.857 2°44.307 5 315 15 100290 41
2011-07-19 08:05:41 51°27.87 2°44.297 5.8 304 15 100290 41
2011-07-19 08:05:47 51°27.889 2°44.281 6.2 27 15 100280 44
2011-07-19 08:05:52 51°27.905 2°44.269 5.4 304 15 100280 44
2011-07-19 08:05:57 51°27.921 2°44.256 7.1 22 15 100280 44
2011-07-19 08:06:01 51°27.933 2°44.245 6.5 303 15 100280 44
2011-07-19 08:06:07 51°27.952 2°44.23 5.9 21 15 100290 44
2011-07-19 08:06:13 51°27.971 2°44.215 5.7 306 15 100290 44
2011-07-19 08:06:17 51°27.984 2°44.205 6.1 22 15 100280 42
2011-07-19 08:06:21 51°27.997 2°44.195 6.1 301 15 100280 42
2011-07-19 08:06:27 51°28.016 2°44.18 5.5 24 15 100280 42
2011-07-19 08:06:33 51°28.035 2°44.165 4.8 308 15 100280 42
2011-07-19 08:06:37 51°28.048 2°44.155 5.2 26 15 100280 42